Location: Maccacari
(45.1333°N, 11.1333°E)
Time: 18:44:52
(UTC+00:00)

USA 234 - Pass Details

Date: 20 January 2021
Orbit: 1100 x 1107 km, 123.0° (Epoch: 01 March)

Event Time Altitude Azimuth Distance (km) Brightness Sun altitude
Exits shadow 18:40:16 46° 37° (NE) 1,438 3.5 -26.8°
Maximum altitude 18:40:46 47° 24° (NNE) 1,423 3.6 -26.9°
Drops below altitude 10° 18:46:58 10° 313° (NW) 2,967 6.1 -28.0°
Sets 18:49:32 0° 308° (NW) 3,928 6.9 -28.4°
